sat.trackr.live / text

‹ back to catalog

STARLINK-4388

NORAD 53651 · 2022-105D

PAYLOAD ACTIVE UNKNOWN

§ Identity

Operator
Country
US
Launch date
2022-08-31
Launch site
AFWTR
Launch vehicle
Mass (kg)
RCS (m²)

Purposes: comms

External: N2YO · Heavens-Above · Gunter

§ Orbital elements

Epoch: 2026-05-25T04:00:03.998880Z

Period
93.32 min
Inclination
97.6040°
Eccentricity
0.0001847
Mean motion
15.43004840 rev/d
Perigee alt
436.0 km
Apogee alt
438.5 km
Semi-major
6,815.4 km
B*
2.6011e-3
RAAN
28.3247°
Arg perigee
77.3160°
Mean anomaly
61.4344°
Rev number
582

§ Raw data

STARLINK-43881 53651U 22105D   26145.16671295  .00116146  00000+0  26011-2 0  99952 53651  97.6040  28.3247 0001847  77.3160  61.4344 15.43004840  5824

JSON: /api/v1/satellites/53651 · /tle

For live sub-satellite position, see the globe view (requires WebGL).

§ Visibility from observer

Set your observer location to see the next 7 days of passes ≥ 10°. The values pass through the URL so the page stays shareable.

No JS? Fill the form by hand. The geolocation button needs JavaScript.